Location: Taukkyan
(23.1052°N, 94.0030°E)
Time: 08:14:56
(UTC+00:00)

CZ-3 R/B - Pass Details

Date: 06 July 2020
Orbit: 360 x 10252 km, 28.4° (Epoch: 06 August)

Event Time Altitude Azimuth Distance (km) Brightness Sun altitude
Rises 19:35:49 0° 280° (W) 15,257 7.4 -37.4°
Reaches altitude 10° 19:53:35 10° 283° (WNW) 14,204 7.2 -35.2°
Maximum altitude 20:59:36 89° 201° (SSW) 4,072 4.5 -24.9°
Drops below altitude 10° 21:13:10 10° 111° (ESE) 4,258 5.2 -22.5°
Sets 21:15:14 0° 111° (ESE) 4,759 5.5 -22.2°
